Weather History for KRWF - May, 2013

Change the Weather History Date:

Friday, May 24, 2013

  Actual Average Record
Temperature  
Mean Temperature 56 °F -  
Max Temperature 72 °F 71 °F 89 °F (1977)
Min Temperature 42 °F 51 °F 35 °F (2002)
Degree Days  
Heating Degree Days 8    
Growing Degree Days 6 (Base 50)    
Moisture  
Dew Point 42 °F    
Average Humidity 63    
Maximum Humidity 94    
Minimum Humidity 28    
Precipitation  
Precipitation 0.12 in - - ()
Sea Level Pressure  
Sea Level Pressure 30.24 in    
Wind  
Wind Speed 10 mph (SE)    
Max Wind Speed 22 mph    
Max Gust Speed 31 mph    
Visibility 10 miles    
Events Rain , Thunderstorm    
Averages and records for this station are not official NWS values.
T = Trace of Precipitation, MM = Missing Value Source: NWS Daily Summary

Daily Weather History Graph

Daily Weather History Graph

Search for Another Location

Airport or City:

Trip Planner

Search our weather history database for the weather conditions in past years. The results will help you decide how hot, cold, wet, or windy it might be!

Date:

Astronomy

May. 24, 2013 Rise Set
Actual Time 5:43 AM CDT 8:51 PM CDT
Civil Twilight 5:08 AM CDT 9:26 PM CDT
Nautical Twilight 4:23 AM CDT 10:11 PM CDT
Astronomical Twilight 3:29 AM CDT 11:06 PM CDT
Moon 8:33 PM CDT (5/24) 5:18 AM CDT (5/24)
Length of Visible Light 16h 17m
Length of Day
15h 07m
Full, 100% of the Moon is Illuminated
May 24
Full
May 24
Full
May 31
Last Quarter
Jun 8
New
Jun 16
First Quarter

Hourly Weather History & Observations

Time (CDT) Temp. Windchill Dew Point Humidity Pressure Visibility Wind Dir Wind Speed Gust Speed Precip Events Conditions
12:53 AM 46.9 °F - 37.9 °F 71% 30.34 in 10.0 mi ENE 3.5 mph - N/A   Clear
1:53 AM 50.0 °F - 36.0 °F 59% 30.33 in 10.0 mi East 6.9 mph - N/A   Clear
2:53 AM 48.0 °F - 36.0 °F 63% 30.33 in 10.0 mi ESE 8.1 mph - N/A   Clear
3:53 AM 46.0 °F 41.9 °F 35.1 °F 66% 30.33 in 10.0 mi ESE 8.1 mph - N/A   Clear
4:53 AM 42.1 °F 36.6 °F 35.1 °F 76% 30.34 in 10.0 mi SE 9.2 mph - N/A   Clear
5:53 AM 43.0 °F 37.7 °F 33.1 °F 68% 30.34 in 10.0 mi SE 9.2 mph - N/A   Clear
6:53 AM 45.0 °F 39.7 °F 34.0 °F 65% 30.34 in 10.0 mi SE 10.4 mph - N/A   Clear
7:53 AM 48.9 °F - 37.0 °F 64% 30.34 in 10.0 mi SE 10.4 mph - N/A   Clear
8:53 AM 54.0 °F - 37.9 °F 55% 30.34 in 10.0 mi SSE 16.1 mph - N/A   Clear
9:53 AM 60.1 °F - 37.9 °F 44% 30.32 in 10.0 mi SSE 18.4 mph - N/A   Clear
10:53 AM 62.1 °F - 37.9 °F 41% 30.30 in 10.0 mi SSE 15.0 mph 25.3 mph N/A   Clear
11:53 AM 66.0 °F - 36.0 °F 33% 30.28 in 10.0 mi SSE 19.6 mph 25.3 mph N/A   Clear
12:53 PM 66.9 °F - 36.0 °F 32% 30.25 in 10.0 mi SSE 20.7 mph 29.9 mph N/A   Clear
1:53 PM 70.0 °F - 36.0 °F 29% 30.22 in 10.0 mi SE 18.4 mph 31.1 mph N/A   Clear
2:53 PM 71.1 °F - 36.0 °F 28% 30.19 in 10.0 mi South 21.9 mph 29.9 mph N/A   Scattered Clouds
3:53 PM 69.1 °F - 37.0 °F 31% 30.18 in 10.0 mi South 19.6 mph 24.2 mph N/A   Overcast
4:53 PM 66.9 °F - 41.0 °F 39% 30.23 in 10.0 mi SSE 11.5 mph - 0.00 in Rain Light Rain
5:53 PM 59.0 °F - 48.9 °F 69% 30.19 in 10.0 mi Calm Calm - 0.07 in Rain Light Rain
6:42 PM 60.8 °F - 51.8 °F 72% 30.17 in 9.0 mi SE 5.8 mph - 0.01 in Rain , Thunderstorm Light Rain
6:53 PM 59.0 °F - 52.0 °F 78% 30.17 in 10.0 mi SE 6.9 mph - 0.02 in Rain , Thunderstorm Light Rain
7:20 PM 55.4 °F - 53.6 °F 94% 30.14 in 8.0 mi East 10.4 mph - 0.02 in Rain , Thunderstorm Light Rain
7:41 PM 55.4 °F - 53.6 °F 94% 30.15 in 10.0 mi East 9.2 mph - 0.03 in   Overcast
7:53 PM 57.0 °F - 53.1 °F 87% 30.16 in 10.0 mi East 8.1 mph - 0.03 in   Overcast
8:53 PM 57.0 °F - 53.1 °F 87% 30.14 in 10.0 mi East 8.1 mph - N/A   Overcast
9:53 PM 57.9 °F - 54.0 °F 87% 30.16 in 10.0 mi ESE 9.2 mph - N/A   Overcast
10:53 PM 57.9 °F - 52.0 °F 81% 30.16 in 10.0 mi ESE 11.5 mph - N/A   Overcast
11:53 PM 57.0 °F - 51.1 °F 81% 30.17 in 10.0 mi East 12.7 mph - N/A   Overcast